User: anonymous   Login
Location: Dunedin
(45.8670°S, 170.5000°E)
Time: 13:35:47
(UTC+13:00)
Language:

BREEZE-M DEB (TANK) - Orbit

View from above orbital plane
View from above orbital plane
View from above satellite
View from above satellite

Ground track
Ground track

The orbit data is extracted from the following two-line orbital elements,

1 35495U 09034C   19291.19636363  .00000146  00000-0  77323-4 0  9998
2 35495  49.6193 336.4096 5014109 115.5806 303.7694  5.56869639205766
Epoch (UTC): 18 October 2019 04:42:45
Eccentricity: 0.5014109
inclination: 49.6193°
perigee height: 325 km
apogee height: 13808 km
right ascension of ascending node: 336.4096°
argument of perigee: 115.5806°
revolutions per day: 5.56869639
mean anomaly at epoch: 303.7694°
orbit number at epoch: 20576

The dashed part of the orbit path shows where the satellite is in the earth's shadow,  

DLR